Location: Newark
(54.4333°N, 18.5500°E)
Time: 14:01:56
(UTC+00:00)

Envisat - Pass Details

Date: 08 December 2019
Orbit: 764 x 766 km, 98.1° (Epoch: 29 January)

Event Time Altitude Azimuth Distance (km) Brightness Sun altitude
Rises 04:11:33 0° 26° (NNE) 3,249 6.5 -22.0°
Reaches altitude 10° 04:14:50 10° 48° (NE) 2,316 6.0 -21.5°
Maximum altitude 04:17:53 16° 85° (E) 1,939 6.0 -21.1°
Drops below altitude 10° 04:20:55 10° 122° (ESE) 2,305 6.5 -20.6°
Sets 04:24:09 0° 144° (SE) 3,225 7.0 -20.2°
